[[{"header":{"parameterUnit":"m.s-1","parameterCategory":1,"la1":30.2991,"la2":30.254,"lo1":-89.0895,"lo2":-89.0444,"dy":0.0017,"dx":0.0017,"nx":28,"ny":28,"refTime":"2026-02-11T03:00:00:Z","depth":0,"parameterNumber":2,"parameterNumberName":"U-component_of_WINDS"},"data":[0,0,0,0,0,0,0,0,0,0,0,0,0,0,0,0,0,0,0,0,0,0,0,0,0,0,0,0,0,0,0,0,0,0,0,0,0,0,0,0,0,0,0,0,0,0,0,0,0,0,0,0,0,0,0,0,0,0,-1.059,-1.0589,0,-1.054,-1.0539,-1.0539,-1.0487,-1.0487,-1.0486,-1.0485,-1.0436,-1.0435,-1.0434,0,0,0,0,0,0,0,0,0,0,0,0,0,-1.0643,-1.0642,-1.059,-1.0589,-1.0589,-1.054,-1.0539,-1.0539,-1.0487,-1.0486,-1.0486,-1.0485,-1.0436,-1.0435,-1.0434,0,0,0,0,0,0,0,0,0,0,0,0,0,-1.0609,-1.0642,-1.059,-1.0557,-1.0554,-1.054,-1.0539,-1.0539,-1.0488,-1.0486,-1.0485,-1.0484,-1.0436,-1.0435,-1.0434,-1.0449,0,0,-1.0431,-1.0431,0,0,0,0,0,0,0,0,-1.0611,-1.0607,-1.0563,-1.0559,-1.0556,-1.0519,-1.054,-1.0509,-1.0488,-1.0513,-1.0485,-1.0484,-1.0464,-1.0461,-1.0454,-1.0447,-1.0445,-1.0431,-1.043,-1.043,-1.043,0,0,0,0,0,0,0,-1.0614,-1.0609,-1.057,-1.0562,-1.0558,-1.0546,-1.054,-1.0534,-1.0495,-1.051,-1.0507,-1.0501,-1.0462,-1.0455,-1.0452,-1.0444,-1.0431,-1.043,-1.043,-1.0429,-1.0448,-1.0449,0,0,0,0,0,0,-1.0621,-1.0612,-1.0572,-1.0569,-1.0581,-1.0546,-1.0539,-1.0532,-1.0495,-1.0488,-1.0502,-1.0499,-1.0457,-1.0454,-1.045,-1.0465,-1.043,-1.0429,-1.0429,-1.0447,-1.0448,-1.0449,0,0,0,0,0,0,-1.0622,-1.0618,-1.0574,-1.0589,-1.0583,-1.0546,-1.0538,-1.0531,-1.0524,-1.0489,-1.0482,-1.0502,-1.0456,-1.0452,-1.045,-1.0463,-1.0429,-1.0428,-1.0446,-1.0447,-1.0449,-1.0496,0,0,0,0,0,0,-1.0624,-1.0618,-1.0623,-1.059,-1.0582,-1.0574,-1.0539,-1.0531,-1.0522,-1.0518,-1.0487,-1.048,-1.0455,-1.0452,-1.0449,-1.0461,-1.0427,-1.0444,-1.0446,-1.0448,-1.0493,-1.0499,-1.0505,0,0,0,0,0,-1.0626,-1.0639,-1.0624,-1.0619,-1.0587,-1.0575,-1.057,-1.054,-1.0524,-1.0528,-1.0506,-1.0481,-1.0463,-1.0452,-1.0449,-1.0461,-1.0443,-1.0446,-1.0448,-1.0491,-1.0498,-1.0504,0,0,0,0,0,0,-1.0676,-1.0634,-1.0617,-1.0619,-1.0601,-1.0566,-1.0571,-1.0549,-1.0535,-1.0531,-1.0495,-1.0489,-1.0491,-1.0476,-1.0465,-1.0474,-1.045,-1.0451,-1.0483,-1.049,-1.0495,-1.0498,-1.0426,0,0,0,0,0,-1.0687,-1.068,-1.0644,-1.065,-1.0641,-1.0608,-1.0601,-1.058,-1.056,-1.0552,-1.0529,-1.0511,-1.0501,-1.0495,-1.0483,-1.0492,-1.0484,-1.0498,-1.0504,-1.0509,-1.051,-1.0514,-1.0519,-1.0458,-1.0458,-1.0457,0,0,-1.071,-1.0686,-1.0684,-1.0659,-1.0642,-1.0636,-1.0602,-1.0596,-1.0591,-1.0551,-1.0547,-1.0531,-1.0508,-1.0511,-1.0512,-1.0499,-1.0526,-1.0512,-1.0516,-1.0515,-1.0517,-1.0523,-1.0528,-1.0459,-1.0459,-1.0459,0,0,-1.0748,-1.073,-1.0732,-1.0717,-1.0692,-1.0669,-1.067,-1.0639,-1.0626,-1.0622,-1.0592,-1.0586,-1.0569,-1.0554,-1.0545,-1.0579,-1.0556,-1.0577,-1.0605,-1.0609,-1.0613,-1.0618,-1.0629,-1.0634,-1.0579,-1.0579,-1.0579,0,-1.078,-1.0769,-1.0737,-1.0733,-1.0723,-1.0687,-1.0689,-1.0675,-1.0648,-1.0643,-1.0629,-1.0607,-1.0589,-1.0588,-1.0597,-1.0591,-1.059,-1.0579,-1.0615,-1.0619,-1.0622,-1.0633,-1.0638,-1.0581,-1.0581,-1.0581,-1.0581,0,-1.0809,-1.0802,-1.0807,-1.0781,-1.0772,-1.0772,-1.074,-1.0735,-1.0715,-1.0695,-1.0692,-1.067,-1.0653,-1.0652,-1.0632,-1.0648,-1.0641,-1.0622,-1.0596,-1.0631,-1.0641,-1.0645,-1.0585,-1.0584,-1.0583,-1.0583,0,0,-1.0876,-1.0833,-1.0835,-1.0823,-1.0794,-1.0788,-1.0786,-1.077,-1.0766,-1.0749,-1.0747,-1.0735,-1.0717,-1.0706,-1.0684,-1.0688,-1.0716,-1.0668,-1.0667,-1.0677,-1.0732,-1.0746,-1.0751,-1.0701,-1.0702,-1.0702,-1.0734,0,-1.0908,-1.0902,-1.0874,-1.0877,-1.087,-1.0835,-1.0834,-1.0816,-1.0798,-1.079,-1.077,-1.0761,-1.0738,-1.0732,-1.0734,-1.0712,-1.0726,-1.071,-1.0699,-1.0699,-1.0704,-1.0756,-1.077,-1.0801,-1.0737,-1.0738,-1.0738,0,-1.0945,-1.093,-1.0932,-1.0902,-1.0898,-1.0898,-1.088,-1.0873,-1.0853,-1.0839,-1.0828,-1.0804,-1.0801,-1.0779,-1.0775,-1.0764,-1.0758,-1.0747,-1.0748,-1.0744,-1.072,-1.0753,-1.081,-1.0814,-1.0744,-1.0744,-1.0743,0,-1.0992,-1.0973,-1.0971,-1.0962,-1.0928,-1.0928,-1.0915,-1.0893,-1.0885,-1.0871,-1.0865,-1.0851,-1.0843,-1.0833,-1.0807,-1.0793,-1.0806,-1.0781,-1.0794,-1.0795,-1.0797,-1.0797,-1.0852,-1.0796,-1.0796,-1.0796,-1.0796,0,-1.1031,-1.1033,-1.0992,-1.0991,-1.0993,-1.0961,-1.0964,-1.0947,-1.0928,-1.0924,-1.0894,-1.0891,-1.0856,-1.0849,-1.0829,-1.0828,-1.0825,-1.0814,-1.0809,-1.0816,-1.0817,-1.0811,-1.0807,-1.0797,-1.0797,-1.0796,-1.0796,0,-1.1083,-1.1056,-1.1052,-1.102,-1.1012,-1.1015,-1.0988,-1.0986,-1.0967,-1.0961,-1.0958,-1.0928,-1.0918,-1.0891,-1.0875,-1.0861,-1.0866,-1.0856,-1.0872,-1.0869,-1.0883,-1.0881,-1.0935,-1.094,-1.0882,-1.0882,-1.0883,0,-1.1109,-1.1109,-1.1078,-1.1073,-1.106,-1.1052,-1.1043,-1.1013,-1.1006,-1.0983,-1.0984,-1.0972,-1.096,-1.0947,-1.0923,-1.0911,-1.0899,-1.0919,-1.0897,-1.0905,-1.0898,-1.0898,-1.0898,-1.0923,-1.0924,-1.0925,-1.0925,0,-1.1157,-1.1143,-1.1132,-1.1116,-1.1107,-1.1094,-1.1079,-1.1076,-1.1042,-1.1036,-1.1025,-1.1016,-1.1,-1.0988,-1.0972,-1.0958,-1.0936,-1.0933,-1.0935,-1.0942,-1.0951,-1.0945,-1.0884,-1.0931,-1.0931,-1.093,-1.093,-1.093,-1.1195,-1.1194,-1.1172,-1.1161,-1.1146,-1.1133,-1.113,-1.111,-1.11,-1.1083,-1.1067,-1.1058,-1.1038,-1.1014,-1.1003,-1.0996,-1.0984,-1.0988,-1.0988,-1.0989,-1.0992,-1.0953,-1.0993,-1.0993,-1.0993,-1.0993,-1.0992,0,-1.1241,-1.1225,-1.1215,-1.1195,-1.1186,-1.1166,-1.1149,-1.1143,-1.1135,-1.1119,-1.1108,-1.1096,-1.1085,-1.1062,-1.1048,-1.1048,-1.1037,-1.1045,-1.1044,-1.1041,-1.1004,-1.1003,-1.1054,-1.1054,-1.1054,-1.1054,-1.1054,-1.1054,-1.1263,-1.1261,-1.1245,-1.1235,-1.1219,-1.121,-1.1202,-1.1189,-1.1176,-1.1164,-1.1154,-1.1139,-1.1119,-1.1105,-1.1094,-1.1087,-1.1084,-1.1095,-1.1085,-1.105,-1.1044,-1.1038,-1.1037,-1.1094,-1.1094,-1.1122,-1.1123,-1.1123]},{"header":{"parameterUnit":"m.s-1","parameterCategory":1,"la1":30.2991,"la2":30.254,"lo1":-89.0895,"lo2":-89.0444,"dy":0.0017,"dx":0.0017,"nx":28,"ny":28,"refTime":"2026-02-11T03:00:00:Z","depth":0,"parameterNumber":3,"parameterNumberName":"V-component_of_WINDS"},"data":[0,0,0,0,0,0,0,0,0,0,0,0,0,0,0,0,0,0,0,0,0,0,0,0,0,0,0,0,0,0,0,0,0,0,0,0,0,0,0,0,0,0,0,0,0,0,0,0,0,0,0,0,0,0,0,0,0,0,2.4155,2.4154,0,2.4079,2.4078,2.4077,2.4052,2.4052,2.4052,2.4053,2.3968,2.3966,2.3963,0,0,0,0,0,0,0,0,0,0,0,0,0,2.4272,2.427,2.4155,2.4154,2.4153,2.4079,2.4078,2.4077,2.4052,2.4052,2.4052,2.4053,2.3969,2.3966,2.3963,0,0,0,0,0,0,0,0,0,0,0,0,0,2.4211,2.4269,2.4155,2.4131,2.4129,2.4079,2.4078,2.4076,2.4051,2.4052,2.4052,2.4053,2.397,2.3966,2.3962,2.3928,0,0,2.3951,2.3949,0,0,0,0,0,0,0,0,2.4214,2.4207,2.4136,2.4133,2.413,2.4075,2.4088,2.4026,2.4051,2.4081,2.4053,2.4053,2.4003,2.3996,2.3981,2.3924,2.3921,2.395,2.3948,2.3946,2.3945,0,0,0,0,0,0,0,2.4219,2.421,2.4124,2.4135,2.4131,2.4123,2.4115,2.4076,2.4039,2.4078,2.4076,2.4068,2.4001,2.3985,2.3979,2.392,2.395,2.3947,2.3945,2.3943,2.3831,2.3831,0,0,0,0,0,0,2.4228,2.4213,2.4127,2.4122,2.4174,2.412,2.4111,2.4092,2.404,2.4033,2.4067,2.4067,2.3991,2.3983,2.3976,2.3933,2.3946,2.3943,2.3941,2.3832,2.3831,2.383,0,0,0,0,0,0,2.423,2.422,2.413,2.4167,2.4155,2.4118,2.4096,2.409,2.4074,2.4032,2.4025,2.4058,2.3991,2.3981,2.3941,2.3929,2.3941,2.3938,2.3833,2.3832,2.3831,2.3847,0,0,0,0,0,0,2.4234,2.4221,2.4209,2.4167,2.4153,2.4098,2.4096,2.4088,2.4068,2.4066,2.4021,2.4014,2.3991,2.3947,2.3937,2.3924,2.3935,2.3834,2.3832,2.3831,2.3847,2.3846,2.3846,0,0,0,0,0,2.4238,2.4215,2.4209,2.4199,2.4138,2.4098,2.4089,2.4065,2.4067,2.4054,2.4027,2.4015,2.3932,2.3943,2.3932,2.3918,2.3834,2.3833,2.3831,2.3847,2.3846,2.3846,0,0,0,0,0,0,2.4255,2.4209,2.4202,2.4165,2.4136,2.4094,2.4076,2.4065,2.4033,2.4033,2.4002,2.3992,2.3954,2.3931,2.3944,2.3882,2.3882,2.3879,2.3898,2.3897,2.3897,2.3903,2.3931,0,0,0,0,0,2.4255,2.4228,2.4189,2.416,2.4146,2.4114,2.4095,2.408,2.4047,2.4034,2.4004,2.3971,2.3937,2.3916,2.3883,2.3843,2.3833,2.3828,2.3828,2.3827,2.3824,2.3802,2.38,2.3826,2.3826,2.3826,0,0,2.4253,2.4225,2.421,2.4163,2.4138,2.411,2.4103,2.4073,2.4051,2.4028,2.399,2.3966,2.3927,2.3888,2.3869,2.3868,2.3815,2.3825,2.3825,2.3823,2.38,2.3798,2.3796,2.3825,2.3825,2.3825,0,0,2.4237,2.4213,2.4187,2.4163,2.4126,2.4105,2.4099,2.4059,2.4043,2.4004,2.3987,2.3959,2.3902,2.3875,2.3854,2.3827,2.3815,2.3817,2.3814,2.3793,2.3791,2.3789,2.3779,2.3776,2.3814,2.3814,2.3814,0,2.4239,2.4197,2.4174,2.4145,2.4125,2.4105,2.4078,2.4055,2.4008,2.3994,2.3994,2.3923,2.3895,2.3849,2.3843,2.3826,2.3817,2.3822,2.3793,2.3791,2.3789,2.3779,2.3776,2.3815,2.3815,2.3815,2.3815,0,2.4202,2.4173,2.4156,2.4115,2.4092,2.4064,2.4035,2.4015,2.4001,2.3979,2.3939,2.3905,2.3865,2.3853,2.3838,2.3805,2.3805,2.38,2.3799,2.3787,2.3778,2.3774,2.3816,2.3815,2.3815,2.3815,0,0,2.4194,2.4141,2.4135,2.4116,2.4075,2.4051,2.4021,2.3985,2.3968,2.3936,2.391,2.3863,2.3857,2.3833,2.3815,2.3796,2.3778,2.3793,2.3791,2.3791,2.3739,2.3744,2.3741,2.3769,2.3768,2.3768,2.3743,0,2.4172,2.4121,2.41,2.4058,2.4031,2.4012,2.3986,2.3956,2.3935,2.3907,2.3883,2.385,2.3846,2.3831,2.3812,2.3784,2.3767,2.3786,2.3743,2.3742,2.3755,2.3736,2.3741,2.3719,2.3739,2.3738,2.3738,0,2.414,2.4111,2.4068,2.403,2.4018,2.3996,2.396,2.3934,2.39,2.3886,2.386,2.3843,2.3809,2.3811,2.3764,2.3777,2.3758,2.3742,2.3741,2.3736,2.374,2.3731,2.3711,2.3708,2.3732,2.3732,2.3733,0,2.4139,2.4089,2.4057,2.4041,2.3996,2.3981,2.3961,2.3928,2.3907,2.3875,2.3862,2.3825,2.3805,2.3777,2.375,2.3754,2.3705,2.3705,2.3692,2.3692,2.3682,2.3684,2.366,2.367,2.367,2.367,2.367,0,2.4118,2.4092,2.4056,2.4036,2.4006,2.3981,2.3951,2.3929,2.39,2.3874,2.3854,2.383,2.3796,2.3767,2.3745,2.3709,2.37,2.3687,2.3681,2.3689,2.3691,2.3676,2.3677,2.3669,2.3669,2.3669,2.3669,0,2.4112,2.4087,2.4051,2.4012,2.4002,2.3981,2.3947,2.3926,2.3904,2.3872,2.3863,2.3827,2.3792,2.3763,2.3715,2.3701,2.3664,2.3657,2.3676,2.3673,2.3662,2.3664,2.3628,2.3622,2.3636,2.3636,2.3636,0,2.41,2.408,2.404,2.4023,2.4004,2.3976,2.3955,2.3929,2.3908,2.3868,2.3852,2.3815,2.3785,2.3729,2.3698,2.3662,2.3655,2.3645,2.3649,2.3657,2.3655,2.3657,2.3654,2.3645,2.3645,2.3645,2.3645,0,2.4082,2.4071,2.4044,2.4012,2.3989,2.3962,2.3934,2.392,2.3888,2.3865,2.3831,2.3807,2.376,2.3724,2.3685,2.3662,2.3648,2.3644,2.3639,2.3646,2.3659,2.3652,2.3676,2.3644,2.3644,2.3644,2.3644,2.3644,2.4073,2.4055,2.4025,2.3994,2.3971,2.3946,2.3925,2.3901,2.3872,2.3834,2.3819,2.3783,2.3749,2.3695,2.3672,2.3642,2.364,2.3633,2.3631,2.363,2.3631,2.3663,2.3635,2.3635,2.3635,2.3635,2.3635,0,2.4055,2.4035,2.4007,2.397,2.3946,2.3937,2.3906,2.3886,2.3856,2.3826,2.3797,2.3757,2.3722,2.3689,2.3652,2.3634,2.3627,2.3625,2.3626,2.3621,2.3635,2.3644,2.3632,2.3632,2.3632,2.3632,2.3632,2.3632,2.4042,2.4011,2.3997,2.3953,2.3932,2.3899,2.3882,2.3858,2.3834,2.3791,2.3763,2.3742,2.371,2.3671,2.3638,2.3629,2.3616,2.3617,2.3606,2.362,2.362,2.3621,2.3629,2.3615,2.3615,2.3595,2.3595,2.3595]}]]